Weather Roundup
Issued by NWS

Home | Current Version | Previous Version | Graphics & Text | Print | Product List | Glossary Off
Versions: 1 2 3 4 5 6 7 8 9 10 11 12 13 14 15 16 17 18 19 20 21 22 23 24 25 26 27 28 29 30 31 32 33 34 35 36 37 38 39 40 41 42 43 44 45 46 47 48 49 50

000
NZUS93 KARX 052259
HRRWXR

CURRENT HOURLY OBSERVATIONS ACROSS
MUCH OF THE UPPER MISSISSIPPI VALLEY
NATIONAL WEATHER SERVICE LA CROSSE WI
600 PM CDT SUN JUL 05 2015


...SOUTHEAST MINNESOTA...


CITY           SKY/WX    TMP DP  RH WIND       PRES   REMARKS
ROCHESTER      PTSUNNY   82  67  60 S18       29.93S
ROCHESTER/MAYO FAIR      81  66  60 S14G22    29.92S
WINONA         MOSUNNY   81  64  57 S3        29.92S
AUSTIN         PTSUNNY   82  66  57 S9G16     29.91F
ALBERT LEA     MOSUNNY   84  68  58 S14G21    29.90S
DODGE CENTER   MOSUNNY   81  68  65 S20G25    29.91F
PRESTON        MOSUNNY   79  65  62 S15G22    29.94F
OWATONNA       MOSUNNY   82  68  61 S14G23    29.89S
FARIBAULT      MOSUNNY   82  70  65 SE17G23   29.88S
$$

...ELSEWHERE IN MINNESOTA...


CITY           SKY/WX    TMP DP  RH WIND       PRES   REMARKS
MINNEAPOLIS    PTSUNNY   88  69  53 S14G23    29.83F HX  92
INTNL FALLS    LGT RAIN  74  64  71 W8        29.75R
DULUTH         PTSUNNY   81  67  62 S17       29.80F
RED WING       PTSUNNY   84  66  54 S12G17    29.86F
REDWOOD FALLS  PTSUNNY   88  70  55 S13       29.80F HX  93
MANKATO        PTSUNNY   84  70  61 S13G20    29.84F
WORTHINGTON    MOSUNNY   88  70  55 S16G25    29.84F HX  92
FAIRMONT       PTSUNNY   84  66  54 S15       29.86S
$$

...SOUTHWEST WISCONSIN...


CITY           SKY/WX    TMP DP  RH WIND       PRES   REMARKS
LA CROSSE      MOSUNNY   83  65  54 S16       29.93F
PRAIRIE DU CHI PTSUNNY   82  62  50 SE9       29.96F
BOSCOBEL       PTSUNNY   82  66  58 VRB6      29.97F
LONE ROCK      NOT AVBL
PLATTEVILLE    MOSUNNY   79  64  60 SE12      30.00F
FORT MC COY    SUNNY     83  60  45 S8G16     29.95F
VIROQUA        FAIR      81  64  55 S13       29.99S
WIS DELLS      MOSUNNY   81  61  50 S10       29.99F
$$

...ELSEWHERE IN WISCONSIN...


CITY           SKY/WX    TMP DP  RH WIND       PRES   REMARKS
MILWAUKEE      MOSUNNY   77  59  53 S14       30.02F
MADISON        PTSUNNY   82  62  50 S15       29.99F
GREEN BAY      SUNNY     82  61  48 S12       29.97F
EAU CLAIRE     NOT AVBL
BLACK RVR FLS  FAIR      85  59  42 S9G16     29.94S
MEDFORD        MOSUNNY   80  62  54 S12G18    29.95F
WAUSAU         SUNNY     82  59  45 S15       29.95F
WIS RAPIDS     MOSUNNY   82  60  47 S12       29.97F
MARSHFIELD     MOSUNNY   81  62  52 S14       29.95F
RICE LAKE      NOT AVBL
$$

...NORTHEAST IOWA...


CITY           SKY/WX    TMP DP  RH WIND       PRES   REMARKS
DECORAH          N/A    N/A N/A N/A MISG        N/A
MASON CITY     MOSUNNY   83  69  62 S16       29.92F
CHARLES CITY   MOSUNNY   81  72  74 SE12G21   29.94F
OELWEIN        MOSUNNY   81  66  61 S16G22    29.97F
$$

...ELSEWHERE IN IOWA...


CITY           SKY/WX    TMP DP  RH WIND       PRES   REMARKS
DES MOINES     PTSUNNY   86  69  56 SE17      29.90F HX  90
IOWA CITY      PTSUNNY   83  69  62 S13       29.96F
FORT DODGE     SUNNY     86  70  58 S10       29.89S HX  90
$$

...NORTHERN ILLINOIS...


CITY           SKY/WX    TMP DP  RH WIND       PRES   REMARKS
CHICAGO-OHARE  MOSUNNY   81  60  48 SW8       30.02F
CHICAGO-MIDWAY MOSUNNY   84  60  44 S10       30.02F
MOLINE         PTSUNNY   79  66  64 SE7       29.99F
ROCKFORD       MOSUNNY   81  63  54 S12       30.03F
PEORIA         SUNNY     83  63  50 S8        30.02F
$$

NOTE: "FAIR" INDICATES FEW OR NO CLOUDS BELOW 12,000 FEET WITH NO
SIGNIFICANT WEATHER AND/OR OBSTRUCTIONS TO VISIBILITY. WIND
SPEEDS ARE IN MILES-PER-HOUR.



USA.gov is the U.S. government's official web portal to all federal, state and local government web resources and services.